#timestamp,LO_Frequency,Hit,StdDev 
1550779215.9,286047003.9,N
1550779235.7,286047001.7,N
1550779255.6,286047002.0,N
1550779275.4,286047003.5,N
1550779295.2,286047001.8,N
1550779315.1,286047004.1,N
1550779316.0,286047004.1,N
1550779335.8,286047008.4,Y
1550779355.7,286047000.1,P
1550779375.5,286047001.2,N
1550779395.3,286046998.1,N
1550779415.2,286047000.5,N
1550779435.0,286046998.4,N
1550779435.9,286046998.4,N
1550779455.7,286046999.7,N
1550779475.6,286047001.8,N
1550779495.4,286047012.0,Y
1550779515.3,286047011.4,P
1550779535.1,286047012.4,N
1550779555.8,286047009.9,N
1550779575.7,286047014.7,Y
1550779595.5,286047008.6,P
1550779615.4,286047008.0,P
1550779635.2,286047002.0,P
1550779655.0,286046999.7,N
1550779655.9,286046999.7,N
1550779675.8,286047010.8,N
1550779695.6,286047009.1,N
1550779715.5,286047003.3,N
1550779735.3,286047003.3,N
1550779755.1,286046999.8,N
1550779775.9,286046997.2,N
1550779795.7,286047000.9,N
1550779815.6,286046999.8,N
1550779835.4,286047000.7,N
1550779855.2,286046999.1,N
1550779875.1,286046998.5,N
1550779876.0,286046998.5,N
1550779895.8,286046996.8,N
1550779915.7,286047000.9,N
1550779935.5,286047001.3,N
1550779955.3,286047004.1,N
1550779975.2,286046999.5,N
1550779995.0,286046997.1,N
1550779995.9,286046997.1,N
1550780015.7,286046995.1,N
1550780035.6,286046997.4,N
1550780055.4,286046993.8,N
1550780075.3,286047000.7,N
1550780095.1,286047000.6,N
1550780115.8,286046999.3,N
1550780135.7,286047004.6,N
1550780155.5,286047015.6,Y
1550780175.4,286047011.4,P
1550780195.2,286047012.0,N
1550780215.0,286047016.2,P
1550780215.9,286047016.2,N
1550780235.8,286047010.0,N
1550780255.6,286047013.3,N
1550780275.4,286047011.6,N
1550780295.3,286047009.1,N
1550780315.1,286047008.5,N
1550780335.9,286047002.5,N
1550780355.7,286047001.9,N
1550780375.5,286046999.6,N
1550780395.4,286046997.9,N
1550780415.2,286047000.6,N
1550780435.1,286047000.1,N
1550780436.0,286047000.1,N
1550780455.8,286047003.9,N
1550780475.6,286047007.5,N
1550780495.5,286047015.6,N
1550780515.3,286047012.9,N
1550780535.1,286047014.5,N
1550780555.9,286047011.8,N
1550780575.7,286047015.0,N
1550780595.6,286047016.4,N
1550780615.4,286047015.9,N
1550780635.2,286047013.9,N
1550780655.1,286047012.8,N
1550780656.0,286047012.8,N
1550780675.8,286047016.3,N
1550780695.7,286047012.1,N
1550780715.5,286047012.6,N
1550780735.3,286047012.7,N
1550780755.2,286047015.4,N
1550780775.0,286047020.8,Y
1550780775.9,286047020.8,P
1550780795.8,286047001.7,N
1550780815.6,286047003.5,N
1550780835.4,286047001.7,N
1550780855.3,286046999.5,N
1550780875.1,286047005.7,N
1550780895.9,286047004.1,N
1550780915.7,286047004.0,N
1550780935.5,286047001.2,N
1550780955.4,286047003.2,N
1550780975.2,286047004.1,N
1550780995.0,286047003.1,N
1550780995.9,286047003.1,N
1550781015.8,286047004.0,N
1550781035.6,286047002.8,N
1550781055.5,286047001.5,N
1550781075.3,286047005.6,N
1550781095.1,286047007.2,N
1550781115.9,286047005.6,N
1550781135.7,286047002.3,N
1550781155.6,286047003.7,N
1550781175.4,286047000.1,N
1550781195.2,286047002.0,N
1550781215.1,286047003.4,N
1550781216.0,286047003.4,N
1550781235.8,286047003.6,N
1550781255.6,286047000.8,N
1550781275.5,286047003.7,N
1550781295.3,286047005.0,N
1550781315.2,286047006.4,N
1550781335.9,286047005.6,N
1550781355.7,286047006.6,Y
1550781375.6,286047001.7,P
1550781395.4,286047001.9,N
1550781415.3,286046998.8,N
1550781435.1,286046995.5,N
1550781436.0,286046995.5,N
1550781455.8,286046994.1,N
1550781475.7,286046996.1,N
1550781495.5,286047002.2,N
1550781515.4,286047001.6,N
1550781535.2,286047007.2,N
1550781555.0,286047008.5,N
1550781555.9,286047008.5,N
1550781575.8,286047008.9,N
1550781595.6,286047003.5,N
1550781615.4,286047007.5,N
1550781635.3,286046999.8,N
1550781655.1,286047000.8,N
1550781675.9,286046994.4,N
1550781695.7,286046999.2,N
1550781715.5,286047001.1,N
1550781735.4,286047000.7,N
1550781755.2,286047004.3,N
1550781775.1,286047005.0,N
1550781776.0,286047005.0,N
1550781795.8,286047007.9,N
1550781815.6,286047010.8,N
1550781835.5,286047003.6,N
1550781855.3,286047002.4,N
1550781875.1,286047001.5,N
1550781895.9,286047003.2,N
1550781915.7,286047006.4,N
1550781935.6,286047003.3,N
1550781955.4,286047004.6,N
1550781975.2,286047005.8,N
1550781995.1,286047007.4,N
1550781996.0,286047007.4,N
1550782015.8,286047010.4,N
1550782035.7,286047009.0,N
1550782055.5,286047004.5,N
1550782075.3,286047007.4,N
1550782095.2,286047010.3,N
1550782115.0,286047004.7,N
1550782115.9,286047004.7,N
1550782135.7,286047006.9,N
1550782155.6,286047004.9,N
1550782175.4,286047008.4,N
1550782195.3,286047010.8,Y
1550782215.1,286047008.0,P
1550782235.8,286047007.0,P
1550782255.7,286047006.7,P
1550782275.5,286047005.1,Y
1550782295.4,286046995.2,P
1550782315.2,286046993.7,N
1550782335.0,286046994.2,N
1550782335.9,286046994.2,N
1550782355.8,286046997.3,N
1550782375.6,286046995.9,N
1550782395.5,286046995.4,N
1550782415.3,286046995.5,N
1550782435.1,286046993.6,N
1550782455.9,286046991.7,N
1550782475.7,286046992.6,N
1550782495.5,286046990.8,N
1550782515.4,286046990.6,N
1550782535.2,286046988.9,N
1550782555.1,286046993.3,N
1550782556.0,286046993.3,N
1550782575.8,286046999.4,N
1550782595.6,286046997.7,N
1550782615.5,286046997.9,N
1550782635.3,286047004.2,N
1550782655.1,286047002.2,N
1550782675.9,286046998.6,N
1550782695.7,286046998.3,N
1550782715.6,286046997.2,N
1550782735.4,286047011.9,N
1550782755.2,286046993.4,N
1550782775.1,286046992.1,N
1550782776.0,286046992.1,N
1550782795.8,286046997.6,N
